Showing default

NUSAT-26 (M SOMERVILLE), 52184

Orbit data source: Space-Track

NUSAT-26 (M SOMERVILLE), 52184 is a payload satellite owned by URUGUS S.A. (AR) in SSO that was launched on Fri, 01 Apr 2022 UTC via an FALCON 9 launch vehicle from the Air Force Eastern Test Range (AFETR). Payload-class satellites include a variety of spacecraft equipped with specific instruments for various scientific and technological missions. These include communications satellites like Starlink; space stations such as the ISS; scientific satellites like the Hubble; Earth observation satellites from companies like Planet Labs, Umbra, and HawkEye 360; GPS; miniature CubeSats for education and research; and military/defense satellites.

Loading next visibility...
Identifier
52184, 2022-033AD
Orbit
SSO
Country
Flag of UnknownUnknown / ARGN
Related business
Manufacturer
URUGUS S.A.
Mission
Operational Commercial Imaging
Bus & Motor
NEWSAT IV, Unknown motor
Mass
41.5 kg wet, 38.5 kg dry
Launch date (UTC)
2022-04-01 (4 years ago)
Launch vehicle
FALCON 9
Launch site
Air Force Eastern Test Range (AFETR)
Object type
Payload
Rocket body
Debris
Shape & HBR
Box, 1.0 m
Radar Cross Section
0.542 m², Medium (>0.1 m² and < 1m²)

Expand to show TLE details & history
Last TLE update: 6 hours ago

TLE from 6 hours ago
0 NUSAT-26 (M SOMERVILLE)
1 52184U 22033AD  25310.83906307  .00022900  00000-0  72047-3 0  9993
2 52184  97.2596  27.8277 0006016 333.5405  26.5530 15.32939022 70531
Epoch: 2025-11-06T20:08Z
TLE epoch observation values (Epoch: 2025-11-06T20:08:15.049Z)
Latitude
0.00004°
Longitude
39.47337°
Altitude
466.477 km
Speed
7.635 km/s
True Right ascension
01h 51m 18s
True Declination
0° 00' 00"
Sunlit
Object was in full shadow at epoch
Visualization orbit readout
Latitude
Unknown
Longitude
Unknown
Altitude
Unknown
Speed
Unknown
Apparent Right ascension
Unknown
Apparent Declination
Unknown
Sunlit
N/A
Visualization observer readout
Local Sidereal Time
22:12:41
Azimuth
Unknown
Elevation
Unknown
Doppler factor
Unknown
Orbital elements
Apogee altitude
468.108 km
Perigee altitude
459.875 km
Semi-major axis
6,842.128 km
Eccentricity
0.0006
Inclination
97.2596°
RAAN
27.8277°
Arg. of periapsis
333.5405°
True anomaly
26.58384°
Mean anomaly
26.553°
Eccentric anomaly
26.56842°
Mean motion
3.83492 °/min
Orbital period
93.87 mins
BSTAR
0.00072047
Loading maneuver chart data...
Computing Atmospheric mass density...

Documentation

Showing up to 5 results
|